sat.trackr.live / text

‹ back to catalog

STARLINK-11149 [DTC]

NORAD 60041 · 2024-112D

PAYLOAD ACTIVE UNKNOWN

§ Identity

Operator
Country
US
Launch date
2024-06-08
Launch site
AFWTR
Launch vehicle
Mass (kg)
RCS (m²)

Purposes: comms

External: N2YO · Heavens-Above · Gunter

§ Orbital elements

Epoch: 2026-05-24T23:54:24.914880Z

Period
91.74 min
Inclination
53.1589°
Eccentricity
0.0000827
Mean motion
15.69714340 rev/d
Perigee alt
359.2 km
Apogee alt
360.3 km
Semi-major
6,737.9 km
B*
1.8266e-5
RAAN
250.2649°
Arg perigee
79.7858°
Mean anomaly
280.3253°
Rev number
11,296

§ Raw data

STARLINK-11149 [DTC]1 60041U 24112D   26144.99612170  .00001626  00000+0  18266-4 0  99942 60041  53.1589 250.2649 0000827  79.7858 280.3253 15.69714340112965

JSON: /api/v1/satellites/60041 · /tle

For live sub-satellite position, see the globe view (requires WebGL).

§ Visibility from observer

Set your observer location to see the next 7 days of passes ≥ 10°. The values pass through the URL so the page stays shareable.

No JS? Fill the form by hand. The geolocation button needs JavaScript.